Home > Time Zones > World Clock > Weather > Iran > Kerman > Past weeks

Flag for Iran Weather past 2 weeks in Kerman, Iran

Now
93 °F

Passing clouds.


Feels Like: 89 °F
Forecast: 62 / 91 °F
Wind: 12 mph from North

Location: Kerman Airport

Current Time: May 30, 2015 at 5:55:07 PM

Latest Report: May 30, 2015 at 4:30 PM


Visibility: N/A

Pressure: 30.15 "Hg

Humidity: 5%

Dew point: 14 °F

Location of KermanLocation

Historic Weather in Kerman — Graph

°F

Kerman temperature yesterday

Maximum temperature yesterday: 91 °F (at 3:30 PM)
Minimum temperature yesterday: 59 °F (at 3:30 AM)
Average temperature yesterday: 79 °F

Past Weeks' High & Low Weather Summary

 TemperatureHumidityPressure
High97 °F (May 15, 4:30 PM)60% (May 16, 10:30 AM)30.45 "Hg (May 16, 10:30 AM)
Low52 °F (May 19, 5:30 AM)2% (May 17, 4:30 PM)29.95 "Hg (May 26, 3:20 PM)
Average78 °F15%30.08 "Hg
* Reported May 15 4:30 PM — May 30 4:30 PM, Kerman, Weather by CustomWeather, © 2015

Note: Actual official high and low records may vary slightly from our data, if they occured in-between our weather recording intervals... More about our weather records

Advertising

Kerman weather history for previous 24 hours

 ConditionsComfort  
Time TempWeatherWind HumidityBarometerVisibility
4:30 PM
Sat, May 30
93 °FPassing clouds.12 mph5%30.15 "HgN/A
3:30 PM93 °FPassing clouds.9 mph5%30.18 "HgN/A
2:30 PM93 °FPassing clouds.7 mph6%30.18 "HgN/A
1:30 PM91 °FSunny.7 mph7%30.21 "Hg10 mi
12:30 PM91 °FSunny.5 mph7%30.24 "Hg10 mi
11:30 AM90 °FSunny.7 mph7%30.24 "Hg10 mi
11:00 AM88 °FSunny.7 mph9%30.24 "Hg10 mi
10:30 AM84 °FSunny.9 mph10%30.24 "Hg10 mi
9:30 AM82 °FSunny.7 mph12%30.24 "Hg10 mi
9:00 AM82 °FSunny.5 mph12%30.24 "Hg10 mi
8:30 AM82 °FSunny.5 mph12%30.24 "Hg10 mi
7:30 AM68 °FSunny.5 mph21%30.24 "Hg10 mi
6:30 AM59 °FClear.7 mph29%30.21 "Hg10 mi
5:30 AM61 °FClear.No wind25%30.18 "Hg10 mi
4:30 AM61 °FClear.No wind25%30.18 "Hg10 mi
3:30 AM64 °FClear.5 mph22%30.15 "Hg10 mi
2:30 AM68 °FClear.7 mph20%30.15 "Hg10 mi
1:30 AM68 °FClear.5 mph20%30.15 "Hg10 mi
12:30 AM68 °FClear.7 mph20%30.15 "Hg10 mi
11:30 PM
Fri, May 29
72 °FClear.7 mph16%30.15 "Hg10 mi
10:30 PM75 °FClear.9 mph13%30.12 "Hg10 mi
9:30 PM79 °FClear.7 mph11%30.12 "Hg10 mi
8:30 PM81 °FSunny.12 mph9%30.09 "Hg10 mi
7:30 PM86 °FSunny.14 mph7%30.09 "Hg10 mi
6:30 PM88 °FPassing clouds.16 mph9%30.07 "HgN/A
6:00 PM90 °FPassing clouds.9 mph8%30.07 "HgN/A
5:30 PM90 °FPassing clouds.9 mph8%30.07 "HgN/A
5:00 PM91 °FPassing clouds.7 mph8%30.07 "HgN/A
Weather by CustomWeather, © 2015

See weather overviewHow to use our weather pages